TimeCDT,TemperatureF,Dew PointF,Humidity,Sea Level PressureIn,VisibilityMPH,Wind Direction,Wind SpeedMPH,Gust SpeedMPH,PrecipitationIn,Events,Conditions,WindDirDegrees,DateUTC
12:53 AM,63.0,61.0,93,29.64,10.0,WNW,4.6,-,N/A,,Overcast,300,2012-10-02 05:53:00
1:16 AM,62.6,60.8,94,29.66,10.0,WNW,3.5,-,N/A,,Overcast,300,2012-10-02 06:16:00
1:53 AM,63.0,60.1,90,29.65,10.0,NW,4.6,-,N/A,,Overcast,320,2012-10-02 06:53:00
2:32 AM,62.6,60.8,94,29.67,5.0,NW,3.5,-,N/A,,Overcast,320,2012-10-02 07:32:00
2:53 AM,61.0,60.1,97,29.66,7.0,NW,4.6,-,N/A,,Overcast,310,2012-10-02 07:53:00
3:53 AM,60.1,59.0,96,29.66,6.0,NW,4.6,-,N/A,,Overcast,310,2012-10-02 08:53:00
4:53 AM,60.1,59.0,96,29.68,4.0,WNW,4.6,-,N/A,,Overcast,300,2012-10-02 09:53:00
5:22 AM,59.0,59.0,100,29.71,3.0,NW,6.9,-,0.01,Rain,Light Rain,310,2012-10-02 10:22:00
5:53 AM,59.0,57.9,96,29.70,4.0,NW,5.8,-,0.01,,Overcast,310,2012-10-02 10:53:00
6:39 AM,57.2,57.2,100,29.73,2.0,NW,4.6,-,N/A,,Overcast,310,2012-10-02 11:39:00
6:53 AM,59.0,57.9,96,29.73,1.5,NW,4.6,-,0.01,,Overcast,320,2012-10-02 11:53:00
7:02 AM,57.2,57.2,100,29.74,1.5,NW,5.8,-,0.00,Rain,Light Rain,310,2012-10-02 12:02:00
7:53 AM,59.0,57.9,96,29.75,1.8,WNW,4.6,-,0.02,Rain,Light Rain,300,2012-10-02 12:53:00
8:27 AM,59.0,57.2,94,29.78,2.0,WNW,3.5,-,0.02,Rain,Light Rain,290,2012-10-02 13:27:00
8:41 AM,59.0,57.2,94,29.79,1.5,WNW,4.6,-,0.03,Rain,Light Rain,290,2012-10-02 13:41:00
8:53 AM,59.0,57.9,96,29.78,4.0,NW,5.8,-,0.03,Rain,Light Rain,310,2012-10-02 13:53:00
9:36 AM,57.2,57.2,100,29.81,2.5,WNW,8.1,-,0.01,Rain,Light Rain,300,2012-10-02 14:36:00
9:43 AM,57.2,57.2,100,29.82,2.5,NW,8.1,-,0.01,Rain,Light Rain,310,2012-10-02 14:43:00
9:53 AM,57.9,57.9,100,29.81,2.0,NW,6.9,-,0.01,Rain,Light Rain,310,2012-10-02 14:53:00
10:38 AM,59.0,57.2,94,29.83,3.0,NW,5.8,-,0.01,,Overcast,320,2012-10-02 15:38:00
10:45 AM,59.0,57.2,94,29.83,2.5,NW,6.9,-,0.01,,Overcast,310,2012-10-02 15:45:00
10:53 AM,59.0,57.9,96,29.83,5.0,NW,5.8,-,0.01,,Overcast,310,2012-10-02 15:53:00
11:53 AM,62.1,59.0,90,29.84,10.0,Calm,Calm,-,N/A,,Overcast,0,2012-10-02 16:53:00
12:53 PM,63.0,57.0,81,29.84,10.0,WSW,8.1,-,N/A,,Overcast,250,2012-10-02 17:53:00
1:53 PM,63.0,55.9,78,29.84,10.0,West,6.9,-,N/A,,Overcast,260,2012-10-02 18:53:00
2:13 PM,64.4,57.2,77,29.85,10.0,SW,4.6,-,N/A,,Overcast,220,2012-10-02 19:13:00
2:53 PM,64.9,57.0,75,29.84,10.0,WSW,4.6,-,N/A,,Overcast,240,2012-10-02 19:53:00
3:53 PM,64.9,55.9,73,29.87,10.0,WNW,3.5,-,N/A,,Overcast,290,2012-10-02 20:53:00
4:53 PM,66.0,55.9,70,29.88,10.0,West,3.5,-,N/A,,Scattered Clouds,260,2012-10-02 21:53:00
5:53 PM,63.0,57.9,84,29.90,10.0,Calm,Calm,-,N/A,,Clear,0,2012-10-02 22:53:00
7:53 PM,55.9,55.0,97,29.94,9.0,SE,3.5,-,N/A,,Clear,130,2012-10-03 00:53:00
8:53 PM,57.0,55.0,93,29.96,8.0,SE,3.5,-,N/A,,Clear,130,2012-10-03 01:53:00
9:53 PM,57.0,55.9,96,29.99,9.0,SE,5.8,-,0.01,,Clear,130,2012-10-03 02:53:00
10:53 PM,57.0,55.9,96,29.99,8.0,ESE,3.5,-,N/A,,Clear,120,2012-10-03 03:53:00
11:53 PM,55.9,55.0,97,30.00,7.0,SE,4.6,-,N/A,,Clear,130,2012-10-03 04:53:00